Location: Newark
(55.7167°N, 12.5667°E)
Time: 05:32:15
(UTC+00:00)

N. Korean satellite - Pass Details

Date: 15 December 2019
Orbit: 454 x 507 km, 97.2° (Epoch: 25 January)

Event Time Altitude Azimuth Distance (km) Brightness Sun altitude
Rises 05:57:00 0° 9° (N) 2,552 10.1 -12.1°
Reaches altitude 10° 05:59:11 10° 0° (N) 1,658 9.0 -11.8°
Maximum altitude 06:02:28 36° 293° (WNW) 761 7.0 -11.4°
Drops below altitude 10° 06:05:41 10° 225° (SW) 1,620 9.0 -10.9°
Sets 06:07:48 0° 217° (SW) 2,484 10.1 -10.7°
